Tracking 19149 objects as of 21-Apr-2018
HD Live streaming from Space Station
objects crossing your sky now

FENGYUN 1C DEB

Track FENGYUN 1C DEB now!
10-day predictions


NORAD ID: 31913
Int'l Code: 1999-025CLQ
Perigee: 819.6 km
Apogee: 1,193.7 km
Inclination: 99.4 °
Period: 105.1 minutes
Semi major axis: 7377 km
RCS: 0.0092 m2 (small)
Launch date: May 10, 1999
Source: People's Republic of China (PRC)
Launch site: Taiyaun Space Center, China (TSC)

Note: This is SATELLITE DEBRIS
aabbcc
Your satellite tracking list
Your tracking list is empty




NASA's NSSDC Master Catalog

Two Line Element Set (TLE):
1 31913U 99025CLQ 18106.29427499  .00001419  00000-0  13258-2 0  9990
2 31913  99.3677  48.9225 0253513 104.3858 258.5569 13.70012029540035
Source of the keplerian elements: AFSPC